Minneapolis-St Paul International,Wold-Chamberlain Airport Minneapolis US
ICAO: KMSP
IATA: MSP
Category: Large
Scheduled Services: Yes

Elevation: 841 ft
TransAlt. 18000 ft.

Airport Communications:
APP:118.72
ATIS:120.8
CLNC DEL:133.2
DEP:132.975
GND:121.8
934 AW BASE OPS:28.267
133 AW COMD POST:31.12
934 AW COMD POST:25.21
PTD:28.267
PRINCETON RDO:122.3
TWR:123.675
UNICOM:122.95

KMSP Zoom In..

Runways:

(A) RW 04 length 11006 ft width 150 ft
ILS 109.30 / hdg 45

(B) RW 12L length 8200 ft width 150 ft
ILS 110.70 / hdg 121

(C) RW 12R length 10000 ft width 200 ft
ILS 110.30 / hdg 121

(D) RW 17 length 8000 ft width 150 ft
LOC 110.95 / hdg 170

(E) RW 22 length 11006 ft width 150 ft
LOC 110.95 / hdg 225

(F) RW 30L length 10000 ft width 200 ft
ILS 110.30 / hdg 301

(G) RW 30R length 8200 ft width 150 ft
ILS 110.70 / hdg 301

(H) RW 35 length 8000 ft width 150 ft
ILS 110.95 / hdg 350

Location; KMSP
Day. 14 / Time. 13.53 Zulu
* Altimeter: 29.93
* Temperature: 26° c. 78.8°f.
* Wind from: 230° Speed 05 kn.
Dewpoint: 18° c.
Visibility: 8 Statute Miles.
Clouds: Few 6000 ft.
Clouds: Scattered 8000 ft.
Clouds: Broken 3000 ft.

KMSP 141353Z 23005KT 8SM FEW060 SCT080 BKN300 26/18 A2993 RMK AO2 SLP127 T02610183


Wind From 230°
Speed 05 kn.

 
 
jpsmedia.com for Web Design worldairports.se 2018   terms of use